GFSFLT1_sfc_30mbdewp_195.txt.gz
Dewpoint
50 55 54 55 58 60 62 64 65 65 66 66 67 67 66 67 67 66 65 66 66 65 65 66 69 70 69 70 72 71 72 70 70
49 50 54 55 58 60 62 63 65 65 65 66 66 66 66 67 67 67 65 66 66 65 68 67 69 70 70 70 70 71 71 71 71
47 51 53 54 57 59 61 62 63 65 66 65 65 66 66 65 66 67 67 67 67 66 68 68 67 68 70 70 70 70 71 70 70
53 52 49 54 56 59 60 62 63 64 66 65 65 65 66 65 65 65 67 66 67 67 67 68 68 67 68 68 69 70 71 70 70
55 57 58 54 56 59 61 62 63 64 65 65 65 65 66 66 65 65 64 65 66 68 67 69 69 69 69 70 69 70 70 68 68
55 57 58 59 55 58 61 62 64 64 65 66 65 66 65 65 65 65 64 63 65 67 68 68 68 69 69 70 70 70 69 69 69
55 56 56 58 60 59 61 63 64 65 65 67 66 65 65 64 65 64 64 64 65 66 68 68 68 69 69 70 70 70 69 68 68
51 51 54 56 57 60 61 62 64 65 65 66 67 66 66 65 66 65 65 65 65 67 67 67 68 68 69 69 67 67 69 69 68
50 51 51 53 57 57 59 63 62 64 65 65 67 66 66 66 66 66 66 66 66 66 67 68 68 68 67 67 66 64 67 69 69
48 49 51 52 55 58 58 61 64 64 65 66 66 67 66 67 66 66 67 66 66 66 67 67 68 68 68 67 68 67 67 67 68
48 49 50 51 54 59 59 61 61 63 67 65 67 67 67 67 67 67 67 67 67 67 67 67 67 67 68 68 69 69 67 67 69
47 48 51 52 53 58 61 61 62 62 65 65 65 66 67 67 67 67 67 67 68 68 68 69 68 68 69 70 70 68 66 67 68
48 49 49 52 53 55 57 59 62 61 61 65 66 65 66 67 67 67 67 68 68 69 68 68 69 68 69 70 69 67 65 65 69
49 50 50 51 52 53 54 58 61 61 61 61 63 67 68 67 67 67 68 68 68 68 69 69 69 69 69 70 68 67 62 64 68
50 50 50 52 53 52 53 57 59 60 60 62 62 62 63 68 69 68 67 68 68 69 69 68 68 69 69 69 69 68 64 65 67
51 51 51 53 53 53 54 55 58 59 59 62 62 61 62 63 65 70 69 69 69 69 69 68 68 68 68 67 69 68 65 64 64
52 52 52 53 53 53 53 55 56 59 60 61 61 61 62 63 63 63 67 70 70 69 69 68 67 67 68 67 68 67 65 63 62
53 53 53 54 54 54 54 55 56 57 58 60 60 61 61 61 61 62 62 66 68 69 69 69 68 68 68 67 67 67 67 65 64
54 54 54 54 55 55 55 55 56 57 58 59 58 58 60 60 60 60 62 65 61 54 59 61 66 68 68 67 66 65 64 63 63
55 55 55 55 55 55 56 56 55 56 58 59 59 59 60 60 61 60 63 64 61 60 54 53 57 62 65 65 64 62 61 59 59

GFSFLT1_sfc_30mbdewp_198.txt.gz
Dewpoint
48 51 52 52 55 58 60 63 64 65 67 68 68 67 67 66 66 65 65 66 61 63 63 63 64 69 67 67 69 69 69 67 66
48 48 51 52 54 57 59 61 64 65 66 67 67 66 67 66 66 65 64 64 65 64 64 63 67 68 67 68 68 69 69 66 67
53 53 50 52 53 55 58 60 63 65 65 66 66 65 66 65 66 66 66 66 66 64 65 66 67 68 68 69 69 69 69 67 67
54 56 57 57 54 55 58 59 60 63 64 65 65 65 65 64 64 65 67 66 67 67 66 68 69 69 69 69 69 69 70 69 67
55 56 58 58 54 56 58 59 60 61 64 65 65 65 65 65 65 64 65 65 66 67 67 67 68 69 69 69 68 68 69 69 65
53 55 56 58 59 59 59 61 62 63 64 65 65 65 65 65 65 64 63 64 65 65 66 67 66 68 69 68 68 69 69 69 67
52 52 53 57 58 61 62 62 63 65 65 66 66 65 65 65 64 64 63 62 63 64 66 66 66 67 68 69 69 67 68 68 68
50 51 51 52 56 58 61 64 64 65 66 66 67 66 66 65 66 65 64 64 64 64 65 66 67 67 68 68 68 65 66 67 68
47 48 50 51 53 57 58 60 64 65 65 66 67 68 67 67 67 67 67 66 66 66 66 67 66 66 66 67 66 63 63 64 67
47 47 48 49 50 54 59 59 60 62 66 65 66 67 68 68 68 68 68 67 68 67 67 67 67 67 66 66 66 65 64 64 64
45 46 47 49 48 49 52 56 59 62 63 67 66 66 67 68 68 68 68 68 68 68 67 67 67 67 68 67 67 67 66 65 67
45 46 47 48 49 50 52 53 56 61 62 62 67 66 66 67 68 68 68 68 68 69 68 67 67 67 67 68 67 66 67 68 67
46 47 47 48 49 50 51 52 54 57 60 61 61 68 67 67 68 68 69 68 69 69 69 69 68 68 68 69 69 69 68 68 66
47 48 49 50 51 50 51 52 53 56 57 59 62 63 65 68 68 69 68 69 69 69 69 68 69 69 69 70 70 70 67 66 66
49 49 50 51 51 52 53 53 53 54 57 58 61 63 63 63 66 69 68 69 69 69 69 69 69 69 69 69 70 70 65 64 63
49 50 51 52 53 53 53 54 54 53 56 59 59 62 63 63 64 66 68 69 70 68 69 68 67 66 66 66 66 70 67 63 62
50 50 51 52 53 53 53 54 55 54 55 57 59 59 62 63 63 63 64 68 69 68 67 67 66 65 65 65 65 66 68 66 65
51 52 52 53 54 55 54 54 56 56 56 55 57 57 57 60 62 62 62 63 62 66 68 68 68 66 65 65 66 67 68 66 67
53 53 54 55 56 56 55 55 55 57 57 56 56 56 54 54 58 60 59 59 62 58 60 62 63 65 67 66 66 66 66 65 65
56 55 55 55 56 56 57 56 56 56 58 57 57 57 55 54 53 57 57 57 58 62 60 55 59 63 66 66 67 64 64 64 63

GFSFLT1_sfc_30mbdewp_201.txt.gz
Dewpoint
47 48 49 50 52 54 57 60 62 64 67 68 68 67 67 68 66 65 64 65 64 63 61 61 66 66 66 68 67 67 68 68 67
49 49 49 49 51 53 57 59 62 63 66 68 68 66 67 67 67 67 64 65 65 65 65 65 67 66 66 65 66 66 68 67 67
53 54 54 53 51 52 55 58 61 64 66 67 67 66 67 67 66 67 66 66 65 65 66 66 68 65 66 66 67 68 69 66 68
53 55 56 57 56 53 54 57 58 62 65 66 67 67 65 65 66 65 66 64 65 65 66 67 67 67 67 68 67 69 69 69 68
53 55 56 57 59 56 56 57 58 59 64 64 66 66 65 65 65 65 65 65 66 67 67 67 67 68 69 69 69 69 68 68 66
52 53 55 57 59 61 62 61 61 61 62 64 64 65 65 65 64 64 63 65 65 67 68 68 65 67 69 69 69 69 68 69 68
51 52 52 54 57 59 62 64 65 65 64 65 65 64 65 65 65 64 63 64 66 65 68 68 67 66 68 68 69 68 68 68 68
49 48 49 51 53 58 59 61 64 67 67 67 66 66 65 66 67 66 65 65 66 67 68 68 69 68 67 68 68 67 68 67 67
47 47 47 48 48 51 56 59 60 61 66 68 68 68 68 68 69 69 69 68 68 68 68 69 69 69 68 68 66 64 65 66 65
47 46 47 48 48 47 49 52 56 59 62 64 69 68 69 69 70 70 70 70 70 69 69 69 70 70 69 69 69 65 63 63 63
46 46 46 46 46 48 49 50 51 55 60 62 63 67 68 69 69 70 70 70 70 70 70 70 70 70 70 70 70 67 65 65 65
44 43 44 45 47 48 50 51 51 52 55 59 62 63 68 68 69 68 70 70 71 71 70 70 70 70 71 70 70 66 66 66 67
43 44 46 48 49 50 50 51 51 52 53 55 58 62 64 68 68 69 69 70 71 71 71 71 69 69 70 71 71 69 66 66 65
45 47 48 49 50 51 51 52 52 52 53 54 57 60 64 64 67 68 69 70 70 71 71 70 70 70 70 71 71 72 67 65 68
46 47 48 49 50 51 51 52 53 53 55 57 59 59 62 66 65 64 65 68 67 69 70 70 71 70 70 69 72 71 67 66 67
47 48 48 49 51 53 54 54 55 54 56 58 59 60 60 62 66 64 63 62 60 59 65 69 68 68 67 66 67 70 68 66 66
49 50 50 51 53 53 54 56 57 57 57 58 58 59 60 59 63 65 67 64 60 61 63 68 67 66 65 64 64 65 69 66 64
50 50 53 54 54 54 54 56 57 58 57 57 55 57 57 56 56 61 64 66 65 64 59 60 68 65 64 63 62 63 68 70 68
54 55 56 56 56 56 56 57 57 59 59 57 56 55 54 54 51 52 59 63 64 62 63 63 62 62 64 70 68 66 65 67 65
54 55 55 57 56 57 58 58 58 58 60 60 58 58 56 54 50 48 52 61 60 59 61 60 61 62 64 62 68 65 64 64 63

GFSFLT1_sfc_30mbdewp_204.txt.gz
Dewpoint
48 52 52 52 52 54 61 61 63 64 70 71 71 70 70 69 70 68 67 67 67 65 66 65 69 71 69 71 72 72 71 71 70
50 51 50 50 52 54 58 61 63 65 70 70 70 70 70 70 69 69 67 67 68 68 66 65 69 69 70 71 71 71 71 70 69
53 55 55 56 55 54 56 58 63 64 68 69 70 69 69 69 69 69 70 69 67 67 68 67 69 70 69 69 70 70 70 70 70
54 55 56 57 58 56 55 56 59 64 66 68 69 69 68 68 69 68 69 69 69 68 69 70 69 68 63 68 69 69 70 69 69
54 56 57 58 60 62 65 64 64 64 66 67 68 69 69 68 68 68 67 68 68 69 69 69 67 67 61 68 69 70 69 69 67
53 53 55 57 59 61 64 66 68 69 68 67 66 68 68 67 68 68 67 67 67 69 69 69 69 69 69 69 70 70 70 71 70
51 51 53 54 57 60 61 63 66 67 69 69 68 66 67 67 67 66 66 67 67 67 69 68 69 69 71 71 70 71 71 70 70
49 48 48 49 51 54 59 61 63 64 66 69 70 68 69 68 68 68 67 66 68 68 69 69 69 69 69 71 71 70 71 71 70
48 47 48 49 49 49 51 54 57 60 63 64 67 69 68 69 69 68 68 68 68 69 69 70 69 69 69 70 69 66 66 69 68
48 47 47 47 47 49 50 52 53 55 59 63 65 66 69 70 69 69 68 68 68 68 69 70 69 70 69 69 70 66 65 66 68
46 45 44 46 45 46 49 50 52 55 56 58 62 65 66 68 68 68 69 68 69 69 69 69 70 69 70 70 70 69 66 65 67
42 42 44 46 47 50 53 53 54 55 56 57 59 61 64 67 69 69 68 69 69 70 70 70 70 70 70 70 70 69 68 65 67
43 44 45 48 50 51 52 54 55 55 56 56 56 58 62 65 69 66 67 69 70 70 69 70 70 70 70 71 71 71 68 66 67
45 45 46 49 50 51 53 54 55 56 56 56 58 59 62 63 67 67 63 67 68 69 69 69 70 70 70 71 71 71 69 66 68
46 47 49 52 52 53 55 55 55 55 57 60 60 61 61 61 64 67 66 61 58 60 64 67 67 69 69 70 71 70 70 67 65
49 50 51 52 52 53 55 57 57 57 58 59 60 60 60 60 61 64 66 65 64 62 58 60 61 68 68 69 70 71 69 67 66
50 51 52 54 56 56 56 58 59 58 59 60 60 59 59 60 60 61 63 66 66 63 62 60 60 61 64 65 65 68 70 68 65
51 53 54 55 56 57 57 58 59 59 59 59 59 59 58 59 58 59 60 62 66 65 63 62 61 62 61 61 60 60 62 70 69
54 55 56 56 58 58 58 58 60 60 61 61 60 59 58 57 57 56 56 56 63 65 64 62 59 60 61 62 61 60 62 62 67
55 56 57 57 58 59 59 59 60 61 61 61 61 61 61 60 57 57 56 54 58 62 64 58 57 60 58 56 58 60 60 61 63

GFSFLT1_sfc_30mbdewp_207.txt.gz
Dewpoint
51 54 56 56 57 59 60 60 68 71 71 71 71 71 70 71 69 69 68 67 67 67 65 67 67 70 70 70 70 71 70 71 70
53 53 53 53 56 60 60 62 63 70 71 71 71 71 71 70 70 70 67 68 68 67 68 68 67 68 69 69 71 70 70 71 69
56 58 59 61 63 62 62 62 64 69 71 71 70 70 70 70 69 69 69 70 68 68 68 66 67 69 69 69 70 70 69 70 69
57 58 60 62 64 66 67 67 64 68 70 70 70 70 70 70 70 69 69 69 70 68 69 68 67 68 66 63 66 70 70 70 69
56 58 59 60 62 64 65 67 68 68 69 70 70 70 69 69 69 69 69 69 69 70 69 69 67 66 66 63 62 67 69 69 68
55 55 58 60 61 61 63 64 67 68 69 68 69 70 70 69 69 69 68 68 68 69 70 67 68 67 66 63 60 66 69 69 69
53 54 53 54 55 60 62 63 63 65 66 69 69 68 69 69 68 68 68 68 67 67 69 69 68 67 66 64 63 70 70 70 69
49 49 50 51 52 54 54 54 57 58 64 66 66 67 68 68 69 69 68 68 68 67 67 69 69 68 69 70 70 69 70 71 70
48 48 49 50 50 50 52 53 53 56 58 58 65 65 66 68 70 69 69 68 68 69 67 69 69 68 68 69 69 69 69 71 70
48 49 48 47 47 48 52 53 54 54 55 56 56 60 65 66 67 67 68 69 68 67 68 68 69 68 68 67 68 69 69 68 70
44 45 45 46 49 50 51 52 52 53 54 55 57 59 60 63 66 67 67 68 68 68 68 67 69 69 69 69 68 68 68 67 66
44 45 46 48 50 50 52 54 55 56 56 56 56 56 58 59 64 67 68 68 69 68 69 68 68 70 69 69 69 69 69 68 66
45 46 47 47 48 53 53 53 54 55 56 57 57 57 57 61 62 65 67 66 65 66 68 67 68 69 70 70 69 69 68 67 68
47 48 51 53 53 52 52 55 55 54 56 57 58 59 59 60 61 61 65 66 65 67 66 66 67 69 69 69 70 70 69 67 68
51 51 52 53 53 55 56 57 58 57 57 58 60 59 58 59 61 62 62 65 65 63 62 62 64 63 62 61 61 65 68 68 66
49 51 52 53 54 54 55 57 58 57 58 60 60 60 60 60 60 61 61 62 64 64 61 58 55 56 56 60 61 62 61 62 64
52 52 53 54 56 56 56 58 58 58 59 60 60 60 60 60 60 59 60 62 63 64 64 62 60 58 57 58 60 60 61 61 65
53 55 56 56 56 57 58 58 58 59 59 60 60 60 60 60 60 59 59 59 60 64 64 63 62 61 59 57 59 58 60 62 62
55 55 56 57 57 57 58 58 59 60 60 61 60 60 60 60 59 58 58 58 58 60 64 63 62 61 61 61 59 59 61 58 59
55 56 57 57 57 58 58 59 59 60 60 61 60 60 60 61 61 60 58 57 57 57 59 60 59 59 59 59 61 59 60 58 58